Preview of NWS' New Version of Forecast
This preview is not operational and should not be used for support decisions.

Regional Weather Roundup (RWR)

Issued by National Weather Service (NWS)

                            
000
ASUS43 KLSX 180407
RWRMO 

WEATHER SUMMARY FOR MISSOURI
NATIONAL WEATHER SERVICE SPRINGFIELD MO
1100 PM CDT WED APR 17 2019

NOTE: "FAIR" INDICATES FEW OR NO CLOUDS BELOW 12,000 FEET WITH NO
       SIGNIFICANT WEATHER AND/OR OBSTRUCTIONS TO VISIBILITY.
       CURRENT SKY AND/OR WEATHER CONDITIONS ARE NOT AVAILABLE FOR
       CHILLICOTHE AND FARMINGTON.

MOZ001>031-035>038-043-044-053-054-180500-
...NORTHERN AND WESTERN MISSOURI...
  
CITY           SKY/WX    TMP DP  RH WIND       PRES   REMARKS
KANSAS CTY INT TSTM      60  51  72 N14G26    29.70R                  
KANSAS C DTWN  TSTM      62  53  72 N15G24    29.69R                  
LEE'S SUMMIT   TSTM      60  57  89 N8        29.69S                  
ST JOSEPH      CLOUDY    57  48  72 N21G31    29.72R                  
CHILLICOTHE      N/A     63  51  65 N10G18    29.68R                  
KIRKSVILLE     LGT RAIN  62  54  74 N14       29.63F                  
     
$$
MOZ066>068-077>081-088>096-101>105-180500-
...SOUTHWEST MISSOURI...
  
CITY           SKY/WX    TMP DP  RH WIND       PRES   REMARKS
SPRINGFIELD    CLOUDY    66  63  90 S12       29.70R                  
JOPLIN         CLOUDY    68  64  87 S17       29.68F                  
BRANSON        CLOUDY    64  64 100 S8        29.73S                  
               
$$
MOZ032>034-039>042-045>050-055>058-069>072-180500-
...CENTRAL MISSOURI...  
  
CITY           SKY/WX    TMP DP  RH WIND       PRES   REMARKS
COLUMBIA       PTCLDY    70  59  68 S8        29.63F                  
JEFFERSON CITY MOCLDY    71  59  65 SE7       29.62F                  
ROLLA          TSTM      67  60  78 S14       29.69S                  
SEDALIA        CLOUDY    65  62  90 S6        29.63F                  
WHITEMAN AFB   CLOUDY    68  64  85 SW7       29.59S                  
WARRENSBURG    CLOUDY    68  61  77 SW6       29.64R                  
OSAGE BEACH    TSTM      65  63  93 S12       29.68S                  
               
$$
MOZ051-052-059>065-180500-
...EAST CENTRAL MISSOURI...
  
CITY           SKY/WX    TMP DP  RH WIND       PRES   REMARKS
ST LOUIS INTL  CLOUDY    69  58  67 S10       29.69F                  
SPIRIT OF STL  CLOUDY    70  59  68 S5        29.66F                  
ST CHARLES     PTCLDY    69  59  70 S12       29.67F                  
                   
$$
MOZ072>076-082>087-097>100-106>115-180500-
...SOUTH CENTRAL AND SOUTHEAST MISSOURI...
  
CITY           SKY/WX    TMP DP  RH WIND       PRES   REMARKS
CAPE GIRARDEAU CLOUDY    69  58  67 S16G25    29.77F                  
FARMINGTON     CLOUDY    66  63  90 S14       29.75F                  
POPLAR BLUFF   CLOUDY    69  63  81 S15G24    29.77F                  
WEST PLAINS    CLOUDY    65  63  93 S13G22    29.75F                  
                                       
$$